Volver al catálogo

CZ-2C R/B

ActivoSSO
NORAD 36089·ROCKET BODY·🇨🇳 China

Lanzado Nov 12, 2009 desde Jiuquan Satellite Launch Center

Loading…

Próximos Pases (próximas 24 horas)

TLE

ActualizadoSource: Space-Track

Época: Sep 14, 2026, 22:33 UTC

1 36089U 09061B   26257.94001181  .00000148  00000-0  46526-4 0  9998
2 36089  98.4679 236.4502 0078786 126.1710 234.6806 14.52452338891113

Sigue CZ-2C R/B en tiempo real con AllMySat

Download on the App Store